• In Latvia
  • List of Countries
  • For 7 days
  • Water Temperature
  • Satellite Maps
  • Weather Map
  • Weather Widgets
  • user-avatar
    Login

    Hourly Weather Oran

    Today, 8 December, Thursday

    Time Temperature Precipitation Wind Pressure Humidity
    00:00 +12°C° 0 mm 4 mps 761 mmHg 92%
    01:00 +12°C° 0.1 mm 4 mps 761 mmHg 92%
    02:00 +12°C° 0.1 mm 4 mps 761 mmHg 93%
    03:00 +12°C° 0.1 mm 4 mps 761 mmHg 93%
    04:00 +12°C° 0.1 mm 3 mps 761 mmHg 93%
    05:00 +12°C° 0.1 mm 3 mps 761 mmHg 93%
    06:00 +12°C° 0.1 mm 3 mps 761 mmHg 93%
    07:00 +13°C° 0.1 mm 3 mps 761 mmHg 89%
    08:00 +14°C° 0.1 mm 3 mps 762 mmHg 85%
    09:00 +16°C° 0.1 mm 3 mps 762 mmHg 81%
    10:00 +16°C° 0.1 mm 3 mps 762 mmHg 79%
    11:00 +17°C° 0.1 mm 3 mps 761 mmHg 76%
    12:00 +17°C° 0.1 mm 3 mps 761 mmHg 74%
    13:00 +18°C° 0.1 mm 4 mps 761 mmHg 72%
    14:00 +18°C° 0.1 mm 4 mps 761 mmHg 71%
    15:00 +18°C° 0.1 mm 4 mps 760 mmHg 70%
    16:00 +17°C° 0 mm 4 mps 761 mmHg 76%
    17:00 +17°C° 0 mm 4 mps 761 mmHg 81%
    18:00 +15°C° 0 mm 4 mps 761 mmHg 87%
    19:00 +14°C° 0.1 mm 3 mps 761 mmHg 89%
    20:00 +13°C° 0.1 mm 3 mps 761 mmHg 91%
    21:00 +14°C° 0.1 mm 2 mps 762 mmHg 93%
    22:00 +13°C° 0 mm 2 mps 761 mmHg 93%
    23:00 +13°C° 0 mm 2 mps 761 mmHg 94%

    Tomorrow, 9 December, Friday

    Time Temperature Precipitation Wind Pressure Humidity
    00:00 +13°C° 0 mm 1 mps 761 mmHg 94%
    01:00 +13°C° 0 mm 1 mps 761 mmHg 93%
    02:00 +13°C° 0 mm 1 mps 761 mmHg 93%
    03:00 +13°C° 0 mm 1 mps 761 mmHg 92%
    04:00 +12°C° 0 mm 1 mps 761 mmHg 91%
    05:00 +12°C° 0 mm 1 mps 761 mmHg 90%
    06:00 +12°C° 0 mm 1 mps 761 mmHg 90%
    07:00 +14°C° 0 mm 1 mps 761 mmHg 82%
    08:00 +15°C° 0 mm 1 mps 762 mmHg 75%
    09:00 +18°C° 0 mm 1 mps 762 mmHg 67%
    10:00 +19°C° 0 mm 1 mps 762 mmHg 62%
    11:00 +20°C° 0 mm 1 mps 762 mmHg 57%
    12:00 +21°C° 0 mm 1 mps 761 mmHg 52%
    13:00 +21°C° 0 mm 2 mps 761 mmHg 52%
    14:00 +21°C° 0 mm 2 mps 761 mmHg 53%
    15:00 +21°C° 0 mm 3 mps 760 mmHg 53%
    16:00 +19°C° 0 mm 3 mps 761 mmHg 61%
    17:00 +17°C° 0 mm 3 mps 761 mmHg 69%
    18:00 +16°C° 0 mm 3 mps 761 mmHg 77%
    19:00 +14°C° 0 mm 3 mps 761 mmHg 79%
    20:00 +14°C° 0 mm 3 mps 761 mmHg 80%
    21:00 +14°C° 0 mm 2 mps 761 mmHg 82%
    22:00 +14°C° 0 mm 2 mps 761 mmHg 82%
    23:00 +14°C° 0 mm 2 mps 761 mmHg 82%

    Day after tomorrow, 10 December, Saturday

    Time Temperature Precipitation Wind Pressure Humidity
    00:00 +14°C° 0 mm 2 mps 761 mmHg 81%
    01:00 +14°C° 0 mm 2 mps 761 mmHg 81%
    02:00 +13°C° 0 mm 2 mps 760 mmHg 80%
    03:00 +13°C° 0 mm 2 mps 760 mmHg 79%
    04:00 +13°C° 0 mm 2 mps 760 mmHg 78%
    05:00 +13°C° 0 mm 2 mps 760 mmHg 76%
    06:00 +13°C° 0 mm 2 mps 760 mmHg 75%
    07:00 +14°C° 0 mm 2 mps 760 mmHg 67%
    08:00 +16°C° 0 mm 2 mps 760 mmHg 60%
    09:00 +17°C° 0 mm 2 mps 761 mmHg 52%
    10:00 +19°C° 0 mm 2 mps 760 mmHg 48%
    11:00 +21°C° 0 mm 1 mps 760 mmHg 44%
    12:00 +23°C° 0 mm 1 mps 760 mmHg 39%
    13:00 +23°C° 0 mm 2 mps 760 mmHg 40%
    14:00 +23°C° 0 mm 2 mps 759 mmHg 41%
    15:00 +22°C° 0 mm 3 mps 759 mmHg 42%
    16:00 +20°C° 0 mm 3 mps 759 mmHg 51%
    17:00 +18°C° 0 mm 3 mps 759 mmHg 60%
    18:00 +16°C° 0 mm 3 mps 759 mmHg 70%
    19:00 +14°C° 0 mm 3 mps 759 mmHg 71%
    20:00 +14°C° 0 mm 3 mps 759 mmHg 73%
    21:00 +14°C° 0 mm 2 mps 759 mmHg 75%
    22:00 +14°C° 0 mm 2 mps 759 mmHg 75%
    23:00 +14°C° 0 mm 2 mps 759 mmHg 74%

    11 December, Sunday

    Time Temperature Precipitation Wind Pressure Humidity
    00:00 +14°C° 0 mm 2 mps 759 mmHg 73%
    01:00 +13°C° 0 mm 2 mps 759 mmHg 74%
    02:00 +13°C° 0 mm 2 mps 759 mmHg 74%
    03:00 +13°C° 0 mm 2 mps 758 mmHg 74%
    04:00 +13°C° 0 mm 2 mps 758 mmHg 74%
    05:00 +13°C° 0 mm 2 mps 758 mmHg 74%
    06:00 +12°C° 0 mm 2 mps 758 mmHg 74%
    07:00 +14°C° 0 mm 2 mps 758 mmHg 65%
    08:00 +16°C° 0 mm 1 mps 759 mmHg 57%
    09:00 +19°C° 0 mm 1 mps 759 mmHg 49%
    10:00 +20°C° 0 mm 1 mps 759 mmHg 46%
    11:00 +21°C° 0 mm 1 mps 758 mmHg 43%
    12:00 +23°C° 0 mm 1 mps 758 mmHg 40%
    13:00 +23°C° 0 mm 2 mps 758 mmHg 41%
    14:00 +21°C° 0 mm 2 mps 757 mmHg 42%
    15:00 +21°C° 0 mm 3 mps 757 mmHg 43%
    16:00 +19°C° 0 mm 3 mps 757 mmHg 52%
    17:00 +17°C° 0 mm 2 mps 757 mmHg 61%
    18:00 +15°C° 0 mm 2 mps 757 mmHg 70%
    19:00 +15°C° 0 mm 2 mps 758 mmHg 71%
    20:00 +14°C° 0 mm 2 mps 758 mmHg 72%
    21:00 +14°C° 0 mm 1 mps 758 mmHg 74%
    22:00 +14°C° 0 mm 1 mps 758 mmHg 74%
    23:00 +13°C° 0 mm 1 mps 758 mmHg 75%

    12 December, Monday

    Time Temperature Precipitation Wind Pressure Humidity
    00:00 +12°C° 0 mm 0 mps 758 mmHg 76%
    01:00 +12°C° 0 mm 0 mps 758 mmHg 77%
    02:00 +11°C° 0 mm 0 mps 757 mmHg 79%
    03:00 +11°C° 0 mm 0 mps 757 mmHg 81%
    04:00 +11°C° 0 mm 0 mps 757 mmHg 81%
    05:00 +11°C° 0 mm 0 mps 757 mmHg 81%
    06:00 +10°C° 0 mm 0 mps 757 mmHg 81%
    07:00 +12°C° 0 mm 0 mps 757 mmHg 72%
    08:00 +14°C° 0 mm 0 mps 758 mmHg 62%
    09:00 +19°C° 0 mm 1 mps 758 mmHg 53%
    10:00 +20°C° 0 mm 1 mps 758 mmHg 49%
    11:00 +21°C° 0 mm 1 mps 757 mmHg 46%
    12:00 +22°C° 0 mm 1 mps 757 mmHg 43%
    13:00 +22°C° 0 mm 1 mps 757 mmHg 44%
    14:00 +22°C° 0 mm 1 mps 756 mmHg 45%
    15:00 +21°C° 0 mm 2 mps 756 mmHg 46%
    16:00 +20°C° 0 mm 1 mps 756 mmHg 55%
    17:00 +18°C° 0 mm 1 mps 756 mmHg 64%
    18:00 +14°C° 0 mm 1 mps 756 mmHg 73%
    19:00 +14°C° 0 mm 1 mps 757 mmHg 74%
    20:00 +14°C° 0 mm 1 mps 757 mmHg 75%
    21:00 +13°C° 0 mm 1 mps 757 mmHg 76%
    22:00 +13°C° 0 mm 1 mps 757 mmHg 77%
    23:00 +13°C° 0 mm 1 mps 757 mmHg 77%

    13 December, Tuesday

    Time Temperature Precipitation Wind Pressure Humidity
    00:00 +13°C° 0 mm 1 mps 757 mmHg 77%
    01:00 +12°C° 0 mm 1 mps 757 mmHg 78%
    02:00 +12°C° 0 mm 1 mps 757 mmHg 80%
    03:00 +11°C° 0 mm 0 mps 757 mmHg 82%
    04:00 +10°C° 0 mm 0 mps 757 mmHg 82%
    05:00 +10°C° 0 mm 0 mps 757 mmHg 82%
    06:00 +11°C° 0 mm 1 mps 757 mmHg 82%
    07:00 +13°C° 0 mm 1 mps 757 mmHg 73%
    08:00 +15°C° 0 mm 1 mps 757 mmHg 63%
    09:00 +18°C° 0 mm 1 mps 758 mmHg 53%
    10:00 +19°C° 0 mm 1 mps 757 mmHg 49%
    11:00 +21°C° 0 mm 1 mps 757 mmHg 45%
    12:00 +22°C° 0 mm 1 mps 757 mmHg 42%
    13:00 +22°C° 0 mm 1 mps 757 mmHg 43%
    14:00 +21°C° 0 mm 2 mps 757 mmHg 44%
    15:00 +21°C° 0 mm 2 mps 756 mmHg 45%
    16:00 +19°C° 0 mm 1 mps 756 mmHg 55%
    17:00 +16°C° 0 mm 1 mps 757 mmHg 65%
    18:00 +14°C° 0 mm 1 mps 757 mmHg 75%
    19:00 +14°C° 0 mm 1 mps 757 mmHg 77%
    20:00 +13°C° 0 mm 1 mps 757 mmHg 79%
    21:00 +13°C° 0 mm 1 mps 757 mmHg 81%
    22:00 +13°C° 0 mm 1 mps 757 mmHg 82%
    23:00 +13°C° 0 mm 2 mps 757 mmHg 83%
    Show more